(192008) = 2005 YJ35

Discovered at Kitt Peak on 2005-12-25 by Spacewatch.

Orbit

Orbit type: Main Belt

Note: WebGL enabled browser required.

epoch2023-09-13.0
epoch JD2460200.5
perihelion date2019-12-16.58442
perihelion JD2458834.08442
argument of perihelion (°)188.38246
ascending node (°)112.05124
inclination (°)3.19101
eccentricity0.1988872
perihelion distance (AU)1.9628643
Tisserand w.r.t. Jupiter3.5
ΔV w.r.t. Earth (km/sec)8.8
semimajor axis (AU)2.4501722
mean anomaly (°)351.14924
mean daily motion (°/day)0.25698570
aphelion distance (AU)2.937
period (years)3.84
P-vector [x]0.50633143
P-vector [y]-0.78791760
P-vector [z]-0.35044877
Q-vector [x]0.86079420
Q-vector [y]0.48611953
Q-vector [z]0.15073537
absolute magnitude16.72
phase slope0.15
uncertainty0
referenceMPEC 2024-A48
observations used584
oppositions18
arc length (days)9909
first opposition used1996
last opposition used2023
residual rms (arc-secs)0.74
perturbers coarse indicatorM-v
perturbers precise indicator003Ek
first observation date used1996-05-20.0
last observation date used2023-07-07.0
computer nameMPCLINUX
JD of orbit computation2456700.419712
perihelion JD uncertainty (days)6.6546E-05
argument of perihelion uncertainty (°)1.1073E-04
ascending node uncertainty (°)1.0983E-04
inclination uncertainty (°)5.1424E-06
eccentricity uncertainty 5.8207E-08
perihelion distance uncertainty (AU)1.3757E-07
Minimum Orbit Intersection Distances (in AU)
for orbit epoch: 2460200.5, reference: E2024-A48
Mercury1.52035
Venus1.23536
Earth0.94673
Mars0.54968
Jupiter2.27639
Saturn6.15471
Uranus15.6117
Neptune27.1986

Observations

579 total observations over interval: 1996 05 20.15353 – 2023 07 07.357287
These data are available for download (format description).

Date (UT) J2000 RA J2000 Dec Magn Location Ref
1996 05 20.15353 14 26 47.36 -09 06 16.0   691 – Steward Observatory, Kitt Peak-Spacewatch MPS 166147
1996 05 20.17473 14 26 46.26 -09 06 13.3 19.9 V 691 – Steward Observatory, Kitt Peak-Spacewatch MPS 166147
1996 05 20.19597 14 26 45.17 -09 06 10.1   691 – Steward Observatory, Kitt Peak-Spacewatch MPS 166147
1997 10 23.43750 03 32 25.39 +14 14 51.3 20.4 V 691 – Steward Observatory, Kitt Peak-Spacewatch MPS 166147
1997 10 23.46065 03 32 24.12 +14 14 46.7 20.2 V 691 – Steward Observatory, Kitt Peak-Spacewatch MPS 166147
1997 10 23.48246 03 32 22.98 +14 14 41.7 20.2 V 691 – Steward Observatory, Kitt Peak-Spacewatch MPS 166147
2000 06 24.25889 16 23 29.30 -18 18 15.8 19.5   704 – Lincoln Laboratory ETS, New Mexico MPS 166147
2000 06 24.27167 16 23 28.75 -18 18 14.1 19.2   704 – Lincoln Laboratory ETS, New Mexico MPS 166147
2000 06 24.28447 16 23 28.27 -18 18 14.8 19.3   704 – Lincoln Laboratory ETS, New Mexico MPS 166147
2001 11 20.29816 04 31 38.49 +18 09 00.7 19.5   704 – Lincoln Laboratory ETS, New Mexico MPS 166147
2001 11 20.32773 04 31 36.64 +18 08 56.6 19.7   704 – Lincoln Laboratory ETS, New Mexico MPS 166147
2001 11 20.34241 04 31 35.77 +18 08 54.4 19.8   704 – Lincoln Laboratory ETS, New Mexico MPS 166147
2004 06 17.27725 19 32 14.77 -20 18 54.7 19.0   704 – Lincoln Laboratory ETS, New Mexico MPS 166147
2004 06 17.28677 19 32 14.36 -20 18 56.9 19.0   704 – Lincoln Laboratory ETS, New Mexico MPS 166147
2004 06 17.29708 19 32 14.05 -20 19 00.1 18.9   704 – Lincoln Laboratory ETS, New Mexico MPS 166147
2004 06 17.30750 19 32 13.75 -20 19 02.3 19.5   704 – Lincoln Laboratory ETS, New Mexico MPS 166147
2005 12 04.26359 05 35 46.64 +20 42 50.4 20.4 V 691 – Steward Observatory, Kitt Peak-Spacewatch MPS 166147
2005 12 04.28106 05 35 45.52 +20 42 50.1 20.7 V 691 – Steward Observatory, Kitt Peak-Spacewatch MPS 166147
2005 12 04.29845 05 35 44.39 +20 42 50.3 20.5 V 691 – Steward Observatory, Kitt Peak-Spacewatch MPS 166147
2005 12 08.31841 05 31 26.79 +20 42 55.8 20.2 V G96 – Mt. Lemmon Survey MPS 166147
2005 12 08.32304 05 31 26.54 +20 42 55.8 20.0 V G96 – Mt. Lemmon Survey MPS 166147
2005 12 08.32770 05 31 26.14 +20 42 54.6 19.2 V G96 – Mt. Lemmon Survey MPS 166147
2005 12 08.33237 05 31 26.00 +20 42 54.5 19.2 V G96 – Mt. Lemmon Survey MPS 166147
2005 12 25.12994 05 13 31.39 +20 43 00.3 20.7 V 691 – Steward Observatory, Kitt Peak-Spacewatch MPS 156710
2005 12 25.14525 05 13 30.44 +20 43 00.9 20.5 V 691 – Steward Observatory, Kitt Peak-Spacewatch MPS 156710
2005 12 25.16056 05 13 29.52 +20 43 00.7 20.4 V 691 – Steward Observatory, Kitt Peak-Spacewatch MPS 156710
2005 12 26.28247 05 12 22.78 +20 43 03.5 19.9 V G96 – Mt. Lemmon Survey MPS 156710
2005 12 26.28844 05 12 22.39 +20 43 03.4 20.2 V G96 – Mt. Lemmon Survey MPS 156710
2005 12 26.29441 05 12 22.03 +20 43 03.5 20.2 V G96 – Mt. Lemmon Survey MPS 156710
2005 12 26.30054 05 12 21.63 +20 43 03.2 20.3 V G96 – Mt. Lemmon Survey MPS 156710
2006 01 22.16759 04 54 06.69 +20 52 47.6 21.1 V G96 – Mt. Lemmon Survey MPS 166147
2006 01 22.17521 04 54 06.55 +20 52 48.0 21.1 V G96 – Mt. Lemmon Survey MPS 166147
2006 01 22.18284 04 54 06.33 +20 52 48.3 21.1 V G96 – Mt. Lemmon Survey MPS 166147
2006 01 22.19045 04 54 06.19 +20 52 48.6 21.3 V G96 – Mt. Lemmon Survey MPS 166147
2007 01 28.44985 11 27 06.62 +06 56 54.0 20.9 V G96 – Mt. Lemmon Survey MPS 198175
2007 01 28.45867 11 27 06.44 +06 56 56.1 21.1 V G96 – Mt. Lemmon Survey MPS 198175
2007 01 28.46751 11 27 06.26 +06 56 57.8 20.8 V G96 – Mt. Lemmon Survey MPS 198175
2007 01 28.47641 11 27 06.04 +06 57 00.0 21.1 V G96 – Mt. Lemmon Survey MPS 198175
2007 02 23.24394 11 11 04.81 +09 17 40.4 20.8 V 691 – Steward Observatory, Kitt Peak-Spacewatch MPS 201553
2007 02 23.26164 11 11 03.86 +09 17 47.6 20.9 V 691 – Steward Observatory, Kitt Peak-Spacewatch MPS 201553
2007 02 23.27933 11 11 02.92 +09 17 54.6 20.6 V 691 – Steward Observatory, Kitt Peak-Spacewatch MPS 201553
2007 02 27.22979 11 07 34.60 +09 43 58.6   691 – Steward Observatory, Kitt Peak-Spacewatch MPS 201553
2007 02 27.24512 11 07 33.75 +09 44 04.3   691 – Steward Observatory, Kitt Peak-Spacewatch MPS 201553
2007 02 27.26046 11 07 32.90 +09 44 10.2   691 – Steward Observatory, Kitt Peak-Spacewatch MPS 201553
2008 08 03.28006 22 15 23.68 -14 05 04.3 18.9   704 – Lincoln Laboratory ETS, New Mexico MPS 253558
2008 08 03.29145 22 15 23.20 -14 05 08.4 18.8   704 – Lincoln Laboratory ETS, New Mexico MPS 253558
2008 08 03.30280 22 15 22.74 -14 05 12.8 18.7   704 – Lincoln Laboratory ETS, New Mexico MPS 253558
2008 08 03.31411 22 15 22.32 -14 05 17.5 19.0   704 – Lincoln Laboratory ETS, New Mexico MPS 253558
2008 08 19.67067 22 03 11.66 -15 53 30.3 18.4 V E12 – Siding Spring Survey MPS 254515
2008 08 19.68163 22 03 11.08 -15 53 34.2 18.2 V E12 – Siding Spring Survey MPS 254515
2008 08 19.69257 22 03 10.58 -15 53 38.2 18.5 V E12 – Siding Spring Survey MPS 254515
2008 08 19.70361 22 03 09.97 -15 53 42.4 18.0 V E12 – Siding Spring Survey MPS 254515
2008 08 23.21095 22 00 19.42 -16 15 52.6 18.4   704 – Lincoln Laboratory ETS, New Mexico MPS 254515
2008 08 23.22420 22 00 18.77 -16 15 57.3 19.0   704 – Lincoln Laboratory ETS, New Mexico MPS 254515
2008 08 23.23747 22 00 18.14 -16 16 02.3 19.4   704 – Lincoln Laboratory ETS, New Mexico MPS 254515
2008 08 23.25068 22 00 17.38 -16 16 06.7 18.6   704 – Lincoln Laboratory ETS, New Mexico MPS 254515
2008 08 23.26389 22 00 16.73 -16 16 12.0 18.3   704 – Lincoln Laboratory ETS, New Mexico MPS 254515
2008 09 06.22292 21 50 06.68 -17 27 16.5 19.0 V 703 – Catalina Sky Survey MPS 255880
2008 09 06.23012 21 50 06.50 -17 27 19.5 18.5 V 703 – Catalina Sky Survey MPS 255880
2008 09 06.23726 21 50 06.18 -17 27 21.0 18.8 V 703 – Catalina Sky Survey MPS 255880
2008 09 06.24437 21 50 05.89 -17 27 22.7 18.9 V 703 – Catalina Sky Survey MPS 255880
2011 03 24.22576 12 00 11.23 +05 10 26.2 21.0 V 703 – Catalina Sky Survey MPS 376893
2011 03 24.23206 12 00 10.98 +05 10 29.4 20.1 V 703 – Catalina Sky Survey MPS 376893
2011 03 24.23837 12 00 10.58 +05 10 33.0 19.9 V 703 – Catalina Sky Survey MPS 376893
2011 03 24.24471 12 00 10.15 +05 10 34.8 20.9 V 703 – Catalina Sky Survey MPS 376893
2011 04 02.30687 11 51 56.957 +06 05 43.11 20.6 w F51 – Pan-STARRS 1, Haleakala MPS 378392
2011 04 02.32200 11 51 56.139 +06 05 48.23 20.5 w F51 – Pan-STARRS 1, Haleakala MPS 378392
2011 04 02.33816 11 51 55.263 +06 05 53.69 20.5 w F51 – Pan-STARRS 1, Haleakala MPS 378392
2011 04 02.35325 11 51 54.440 +06 05 58.80 20.5 w F51 – Pan-STARRS 1, Haleakala MPS 378392
2011 04 04.27482 11 50 14.60 +06 16 28.4 19.9 V G96 – Mt. Lemmon Survey MPS 378392
2011 04 04.28240 11 50 14.20 +06 16 30.8 19.8 V G96 – Mt. Lemmon Survey MPS 378392
2011 04 04.28984 11 50 13.81 +06 16 33.3 19.7 V G96 – Mt. Lemmon Survey MPS 378392
2011 04 04.29743 11 50 13.41 +06 16 35.8 19.8 V G96 – Mt. Lemmon Survey MPS 378392
2011 04 04.30499 11 50 13.02 +06 16 38.4 19.8 V G96 – Mt. Lemmon Survey MPS 378392
2011 06 19.27690 11 50 31.404 +04 48 04.95 21.5 w F51 – Pan-STARRS 1, Haleakala MPS 385716
2011 06 19.28218 11 50 31.665 +04 48 02.82 21.6 w F51 – Pan-STARRS 1, Haleakala MPS 385716
2011 06 19.29270 11 50 32.184 +04 47 58.21 21.6 w F51 – Pan-STARRS 1, Haleakala MPS 385716
2012 08 25.48824 00 32 05.560 -01 48 27.71 19.3 w F51 – Pan-STARRS 1, Haleakala MPS 430824
2012 08 25.50245 00 32 05.177 -01 48 32.10 19.2 w F51 – Pan-STARRS 1, Haleakala MPS 430824
2012 08 25.51670 00 32 04.807 -01 48 36.39 19.4 w F51 – Pan-STARRS 1, Haleakala MPS 430824
2012 08 25.53097 00 32 04.430 -01 48 40.81 19.3 w F51 – Pan-STARRS 1, Haleakala MPS 430824
2012 09 11.27462 00 21 49.72 -03 30 10.1 19.2 G G45 – Space Surveillance Telescope, Atom Site MPS 1607089
2012 09 11.32293 00 21 47.31 -03 30 29.7 19.2 G G45 – Space Surveillance Telescope, Atom Site MPS 1607089
2012 09 11.39385 00 21 43.75 -03 30 58.3 19.1 G G45 – Space Surveillance Telescope, Atom Site MPS 1607089
2012 09 11.40676 00 21 43.06 -03 31 03.0 19.3 G G45 – Space Surveillance Telescope, Atom Site MPS 1607089
2012 09 11.43379 00 21 41.69 -03 31 14.0 19.4 G G45 – Space Surveillance Telescope, Atom Site MPS 1607089
2012 09 15.30108 00 18 31.28 -03 57 05.2 18.9 V 703 – Catalina Sky Survey MPS 433026
